Change the Weather History Date:

Friday, October 18, 2013

  Actual Average Record
Temperature  
Mean Temperature 45 °F 45 °F  
Max Temperature 66 °F 62 °F 75 °F (1991)
Min Temperature 23 °F 28 °F 15 °F (1984)
Degree Days  
Heating Degree Days 20 20  
Month to date heating degree days 376 319  
Since 1 July heating degree days 804 945  
Cooling Degree Days 0 0  
Month to date cooling degree days 0 0  
Year to date cooling degree days 104 31  
Moisture  
Dew Point 20 °F    
Average Humidity 46    
Maximum Humidity 74    
Minimum Humidity 18    
Precipitation  
Precipitation 0.00 in - 0.74 in (1972)
Month to date precipitation 0.04  
Year to date precipitation 7.19  
Sea Level Pressure  
Sea Level Pressure 30.21 in    
Wind  
Wind Speed 3 mph (SE)    
Max Wind Speed 53 mph    
Max Gust Speed 167 mph    
Visibility 7 miles    
Events Snow    
T = Trace of Precipitation, MM = Missing Value Source: NWS Daily Summary

Daily Weather History Graph

Daily Weather History Graph

Search for Another Location

Airport or City:

Trip Planner

Search our weather history database for the weather conditions in past years. The results will help you decide how hot, cold, wet, or windy it might be!

Date:

Astronomy

Oct. 18, 2013 Rise Set
Actual Time 7:12 AM PDT 6:16 PM PDT
Civil Twilight 6:45 AM PDT 6:43 PM PDT
Nautical Twilight 6:14 AM PDT 7:14 PM PDT
Astronomical Twilight 5:43 AM PDT 7:45 PM PDT
Moon 6:10 PM PDT (10/18) 6:53 AM PDT (10/18)
Length of Visible Light 11h 57m
Length of Day
11h 03m
Full, 100% of the Moon is Illuminated
Oct 18
Full
Oct 18
Full
Oct 26
Last Quarter
Nov 3
New
Nov 9
First Quarter

Hourly Weather History & Observations

Time (PDT) Temp. Windchill Dew Point Humidity Pressure Visibility Wind Dir Wind Speed Gust Speed Precip Events Conditions
12:53 AM 34.0 °F 31.0 °F 17.1 °F 50% 30.15 in 10.0 mi SW 3.5 mph - N/A   Clear
1:53 AM 30.0 °F - 17.1 °F 59% 30.16 in 10.0 mi Calm Calm - N/A   Clear
2:53 AM 28.9 °F - 16.0 °F 58% 30.16 in 10.0 mi Calm Calm - N/A   Clear
3:53 AM 28.0 °F 22.8 °F 16.0 °F 61% 30.17 in 10.0 mi South 4.6 mph - N/A   Clear
4:53 AM 27.0 °F 23.0 °F 16.0 °F 63% 30.19 in 10.0 mi South 3.5 mph - N/A   Clear
5:53 AM 26.1 °F 19.4 °F 15.1 °F 63% 30.22 in 10.0 mi South 5.8 mph - N/A   Clear
6:53 AM 24.1 °F 17.0 °F 15.1 °F 69% 30.25 in 10.0 mi South 5.8 mph - N/A   Clear
7:53 AM 23.0 °F 18.4 °F 15.1 °F 72% 30.27 in 10.0 mi South 3.5 mph - N/A   Clear
8:53 AM 33.1 °F - 19.9 °F 59% 30.27 in 10.0 mi Calm Calm - N/A   Clear
9:53 AM 48.9 °F - 19.9 °F 32% 30.23 in 10.0 mi Calm Calm - N/A   Clear
10:53 AM 57.0 °F - 19.9 °F 24% 30.20 in 10.0 mi ENE 4.6 mph - N/A   Clear
11:53 AM 60.1 °F - 21.0 °F 22% 30.19 in 10.0 mi Variable 3.5 mph - N/A   Clear
12:53 PM 62.1 °F - 21.9 °F 21% 30.17 in 10.0 mi Variable 3.5 mph - N/A   Clear
1:07 PM 64.4 °F - 23.0 °F 21% 30.24 in 0.8 mi Variable 5.8 mph - N/A   Haze
1:10 PM 64.4 °F - 21.2 °F 19% 30.24 in 4.0 mi Variable 3.5 mph - N/A   Haze
1:17 PM 64.4 °F - 23.0 °F 21% 30.24 in 10.0 mi Variable 3.5 mph - N/A   Clear
1:50 PM 64.4 °F - 23.0 °F 21% 30.23 in 0.5 mi Variable 4.6 mph - N/A   Haze
1:53 PM 64.9 °F - 23.0 °F 20% 30.15 in 1.8 mi Calm Calm - N/A   Haze
1:56 PM 64.4 °F - 23.0 °F 21% 30.23 in 5.0 mi Variable 3.5 mph - N/A   Haze
2:02 PM 64.4 °F - 21.2 °F 19% 30.23 in 2.5 mi Calm Calm - N/A   Haze
2:10 PM 64.4 °F - 21.2 °F 19% 30.23 in 1.2 mi NNE 4.6 mph - N/A   Haze
2:14 PM 64.4 °F - 21.2 °F 19% 30.23 in 5.0 mi NNE 5.8 mph - N/A   Haze
2:28 PM 64.4 °F - 17.6 °F 16% 30.22 in 0.8 mi North 6.9 mph - N/A   Haze
2:53 PM 64.9 °F - 19.0 °F 17% 30.14 in 0.2 mi Variable 4.6 mph - N/A   Haze
3:21 PM 64.4 °F - 21.2 °F 19% 30.22 in 2.5 mi Calm Calm - N/A   Haze
3:28 PM 66.2 °F - 23.0 °F 19% 30.22 in 10.0 mi Variable 5.8 mph - N/A   Clear
3:51 PM 64.4 °F - 23.0 °F 21% 30.22 in 0.5 mi North 4.6 mph - N/A   Haze
3:53 PM 64.9 °F - 23.0 °F 20% 30.14 in 0.8 mi NNE 4.6 mph - N/A   Haze
3:56 PM 64.4 °F - 23.0 °F 21% 30.21 in 3.0 mi Variable 3.5 mph - N/A   Haze
4:03 PM 64.4 °F - 21.2 °F 19% 30.21 in 10.0 mi Variable 3.5 mph - N/A   Clear
4:53 PM 63.0 °F - 23.0 °F 22% 30.15 in 10.0 mi NNE 4.6 mph - N/A   Clear
5:53 PM 55.0 °F - 24.1 °F 30% 30.17 in 10.0 mi North - - N/A   Clear
6:53 PM 48.0 °F - 19.9 °F 33% 30.22 in 10.0 mi Calm Calm - N/A   Clear
7:53 PM 45.0 °F - 21.9 °F 40% 30.25 in 10.0 mi Calm Calm - N/A   Clear
8:53 PM 39.9 °F 36.7 °F 23.0 °F 51% 30.25 in 10.0 mi SSW 4.6 mph - N/A   Clear
9:53 PM 37.9 °F - 21.9 °F 53% 30.22 in 10.0 mi Calm Calm - N/A   Clear
10:53 PM 35.1 °F 32.2 °F 21.9 °F 59% 30.21 in 10.0 mi South 3.5 mph - N/A   Clear
11:53 PM 33.1 °F - 21.0 °F 61% 30.20 in 9.0 mi Calm Calm - 0.00 in Snow Light Snow